Date String (YYYY-MM-DD hh:mm:ss) UTC,Instrument flags,absolute air pressure of the measurement (hPa),sample flow rate (lpm),inlet stack bypass flow (lpm),air temperature of the measurement (°C),ambient temperature measured by the external sensor (°C),aerosol sample conditioner tube jacket temperature (°C),OPC LED temperature (°C),internal box temperature (°C),relative humidity of the measurement (%),span deviation,mass concentration of particles derived from Lorenz-Mie calculation of OPC scattering (μg/m³),mass concentration of particles derived from Lorenz-Mie calculation of OPC scattering (μg/m³),mass concentration of particles derived from Lorenz-Mie calculation of OPC scattering (μg/m³)
DateTimeUTC,F1_M11,P_M11,Q1_M11,Q2_M11,T1_M11,T2_M11,T3_M11,T4_M11,T5_M11,U1_M11,ZSPAN_M11,X2_M11,X0_M11,X1_M11
2023-12-05 03:00:00,SystemResetWarning,0834.1,5.00,000.00,022.7,021.7,000.0,031.0,024.0,18.5,0000.0,0002.01,0007.66,0001.03
2023-12-05 03:01:00,SystemResetWarning,0834.1,5.00,000.00,022.7,021.7,000.0,031.0,024.0,18.5,0000.0,0001.94,0007.42,0001.03
2023-12-05 03:02:00,SystemResetWarning,0834.0,4.99,000.00,022.6,021.7,000.0,031.0,024.0,18.6,0000.0,0001.88,0007.54,0001.01
2023-12-05 03:03:00,SystemResetWarning,0834.1,5.00,000.00,022.6,021.7,000.0,031.0,023.9,18.6,0000.0,0001.89,0007.53,0001.00
2023-12-05 03:04:00,SystemResetWarning,0834.1,5.00,000.00,022.6,021.7,000.0,031.0,023.9,18.6,0000.0,0001.86,0007.50,0001.00
2023-12-05 03:05:00,SystemResetWarning,0834.1,5.01,000.00,022.6,021.6,000.0,031.0,023.9,18.6,0000.0,0001.83,0007.20,0000.99
2023-12-05 03:06:00,SystemResetWarning,0834.2,5.00,000.00,022.6,021.6,000.0,031.0,023.9,18.6,0000.0,0001.79,0007.04,0000.98
2023-12-05 03:07:00,SystemResetWarning,0834.5,5.00,000.00,022.6,021.6,000.0,030.9,023.9,18.6,0000.0,0001.74,0006.91,0000.97
2023-12-05 03:08:00,SystemResetWarning,0834.4,5.00,000.00,022.6,021.6,000.0,030.9,023.9,18.6,0000.0,0001.74,0007.00,0000.96
2023-12-05 03:09:00,SystemResetWarning,0834.4,5.00,000.00,022.6,021.6,000.0,030.9,023.9,18.6,0000.0,0001.72,0006.83,0000.95
2023-12-05 03:10:00,SystemResetWarning,0834.7,5.00,000.00,022.6,021.6,000.0,030.9,023.9,18.6,0000.0,0001.78,0005.83,0000.94
2023-12-05 03:11:00,SystemResetWarning,0834.5,4.99,000.00,022.6,021.6,000.0,030.9,023.9,18.6,0000.0,0001.76,0005.63,0000.95
2023-12-05 03:12:00,SystemResetWarning,0834.3,5.00,000.00,022.6,021.6,000.0,030.9,023.9,18.6,0000.0,0001.77,0005.42,0000.94
2023-12-05 03:13:00,SystemResetWarning,0834.2,5.01,000.00,022.6,021.6,000.0,030.9,023.9,18.6,0000.0,0001.77,0004.31,0000.94
2023-12-05 03:14:00,SystemResetWarning,0834.5,5.00,000.00,022.6,021.6,000.0,030.9,023.9,18.6,0000.0,0001.72,0004.47,0000.94
2023-12-05 03:15:00,SystemResetWarning,0834.4,5.00,000.00,022.6,021.6,000.0,030.9,023.9,18.6,0000.0,0001.65,0004.73,0000.94
2023-12-05 03:16:00,SystemResetWarning,0834.3,5.00,000.00,022.6,021.6,000.0,030.9,023.9,18.5,0000.0,0001.65,0004.81,0000.96
2023-12-05 03:17:00,SystemResetWarning,0834.2,5.00,000.00,022.6,021.6,000.0,030.9,023.9,18.5,0000.0,0001.66,0005.49,0000.98
2023-12-05 03:18:00,SystemResetWarning,0834.2,4.99,000.00,022.6,021.6,000.0,030.9,023.9,18.5,0000.0,0001.69,0005.77,0000.99
2023-12-05 03:19:00,SystemResetWarning,0834.5,5.00,000.00,022.6,021.6,000.0,030.9,023.9,18.5,0000.0,0001.70,0005.69,0000.99
2023-12-05 03:20:00,SystemResetWarning,0834.6,5.00,000.00,022.6,021.6,000.0,030.9,023.9,18.5,0000.0,0001.70,0005.59,0001.01
2023-12-05 03:21:00,SystemResetWarning,0834.3,5.00,000.00,022.6,021.6,000.0,030.9,023.9,18.5,0000.0,0001.63,0005.87,0001.02
2023-12-05 03:22:00,SystemResetWarning,0834.3,4.99,000.00,022.6,021.7,000.0,030.9,023.9,18.4,0000.0,0001.62,0006.54,0001.02
2023-12-05 03:23:00,SystemResetWarning,0834.4,5.00,000.00,022.6,021.7,000.0,030.9,023.9,18.4,0000.0,0001.62,0007.59,0001.02
2023-12-05 03:24:00,SystemResetWarning,0834.4,5.00,000.00,022.6,021.7,000.0,030.9,023.9,18.4,0000.0,0001.61,0007.63,0001.02
2023-12-05 03:25:00,SystemResetWarning,0834.4,5.01,000.00,022.6,021.7,000.0,030.9,023.9,18.4,0000.0,0001.66,0008.04,0001.03
2023-12-05 03:26:00,SystemResetWarning,0834.4,5.00,000.00,022.6,021.7,000.0,030.9,023.9,18.4,0000.0,0001.69,0007.80,0001.03
2023-12-05 03:27:00,SystemResetWarning,0834.4,5.00,000.00,022.6,021.7,000.0,030.9,023.9,18.4,0000.0,0001.69,0007.82,0001.03
2023-12-05 03:28:00,SystemResetWarning,0834.3,5.01,000.00,022.6,021.7,000.0,030.9,023.9,18.4,0000.0,0001.68,0007.45,0001.02
2023-12-05 03:29:00,SystemResetWarning,0834.4,5.00,000.00,022.6,021.7,000.0,030.9,023.9,18.5,0000.0,0001.71,0007.68,0001.02
2023-12-05 03:30:00,SystemResetWarning,0834.4,5.00,000.00,022.6,021.7,000.0,030.9,023.9,18.4,0000.0,0001.70,0007.75,0001.02
2023-12-05 03:31:00,SystemResetWarning,0834.4,4.99,000.00,022.6,021.7,000.0,030.9,023.9,18.4,0000.0,0001.67,0007.71,0001.01
2023-12-05 03:32:00,SystemResetWarning,0834.4,5.00,000.00,022.6,021.7,000.0,030.9,023.9,18.5,0000.0,0001.68,0007.19,0001.01
2023-12-05 03:33:00,SystemResetWarning,0834.3,4.99,000.00,022.6,021.7,000.0,030.9,023.9,18.5,0000.0,0001.72,0007.47,0001.01
2023-12-05 03:34:00,SystemResetWarning,0834.3,5.00,000.00,022.6,021.7,000.0,030.9,023.9,18.6,0000.0,0001.73,0006.82,0001.01
2023-12-05 03:35:00,SystemResetWarning,0834.5,5.00,000.00,022.6,021.7,000.0,030.9,023.9,18.6,0000.0,0001.76,0006.97,0001.02
2023-12-05 03:36:00,SystemResetWarning,0834.3,5.00,000.00,022.6,021.7,000.0,030.9,023.9,18.6,0000.0,0001.68,0006.56,0001.02
2023-12-05 03:37:00,SystemResetWarning,0834.5,4.99,000.00,022.6,021.7,000.0,030.9,023.9,18.6,0000.0,0001.69,0007.55,0001.02
2023-12-05 03:38:00,SystemResetWarning,0834.5,5.00,000.00,022.6,021.7,000.0,030.9,023.8,18.6,0000.0,0001.65,0007.57,0001.02
2023-12-05 03:39:00,SystemResetWarning,0834.6,5.00,000.00,022.6,021.7,000.0,030.9,023.8,18.6,0000.0,0001.62,0007.54,0001.03
2023-12-05 03:40:00,SystemResetWarning,0834.4,5.00,000.00,022.6,021.7,000.0,030.9,023.8,18.6,0000.0,0001.62,0007.20,0001.03
2023-12-05 03:41:00,SystemResetWarning,0834.5,5.00,000.00,022.6,021.7,000.0,030.9,023.9,18.6,0000.0,0001.63,0007.13,0001.04
2023-12-05 03:42:00,SystemResetWarning,0834.3,5.00,000.00,022.6,021.7,000.0,030.9,023.8,18.6,0000.0,0001.69,0007.34,0001.04
2023-12-05 03:43:00,SystemResetWarning,0834.2,5.01,000.00,022.6,021.7,000.0,030.9,023.8,18.6,0000.0,0001.68,0007.36,0001.04
2023-12-05 03:44:00,SystemResetWarning,0834.1,5.01,000.00,022.6,021.7,000.0,030.9,023.9,18.6,0000.0,0001.63,0006.34,0001.05
2023-12-05 03:45:00,SystemResetWarning,0834.1,5.00,000.00,022.6,021.7,000.0,030.9,023.8,18.6,0000.0,0001.61,0005.92,0001.05
2023-12-05 03:46:00,SystemResetWarning,0834.1,5.00,000.00,022.6,021.7,000.0,030.9,023.9,18.6,0000.0,0001.65,0006.19,0001.06
2023-12-05 03:47:00,SystemResetWarning,0834.0,4.99,000.00,022.6,021.7,000.0,030.9,023.9,18.6,0000.0,0001.74,0006.69,0001.07
2023-12-05 03:48:00,SystemResetWarning,0834.0,5.00,000.00,022.6,021.7,000.0,030.9,023.8,18.7,0000.0,0001.74,0006.03,0001.06
2023-12-05 03:49:00,SystemResetWarning,0834.0,5.00,000.00,022.6,021.7,000.0,030.9,023.9,18.6,0000.0,0001.76,0005.72,0001.06
2023-12-05 03:50:00,SystemResetWarning,0834.1,5.00,000.00,022.6,021.7,000.0,030.9,023.9,18.6,0000.0,0001.77,0006.61,0001.06
2023-12-05 03:51:00,SystemResetWarning,0834.1,5.00,000.00,022.6,021.7,000.0,030.9,023.9,18.6,0000.0,0001.73,0006.96,0001.06
2023-12-05 03:52:00,SystemResetWarning,0834.1,5.01,000.00,022.6,021.7,000.0,030.9,023.8,18.5,0000.0,0001.72,0007.57,0001.05
2023-12-05 03:53:00,SystemResetWarning,0834.1,5.00,000.00,022.6,021.7,000.0,030.9,023.8,18.5,0000.0,0001.68,0007.90,0001.06
2023-12-05 03:54:00,SystemResetWarning,0834.1,5.00,000.00,022.6,021.7,000.0,030.9,023.8,18.3,0000.0,0001.70,0008.00,0001.06
2023-12-05 03:55:00,SystemResetWarning,0834.1,5.01,000.00,022.6,021.7,000.0,030.9,023.8,18.3,0000.0,0001.72,0008.31,0001.05
2023-12-05 03:56:00,SystemResetWarning,0834.1,5.00,000.00,022.6,021.7,000.0,030.9,023.9,18.3,0000.0,0001.73,0008.29,0001.05
2023-12-05 03:57:00,SystemResetWarning,0834.2,5.00,000.00,022.6,021.7,000.0,030.9,023.9,18.4,0000.0,0001.71,0008.23,0001.05
2023-12-05 03:58:00,SystemResetWarning,0834.2,5.00,000.00,022.6,021.7,000.0,030.9,023.8,18.4,0000.0,0001.64,0007.81,0001.05
2023-12-05 03:59:00,SystemResetWarning,0834.2,4.99,000.00,022.6,021.7,000.0,030.9,023.8,18.4,0000.0,0001.60,0007.33,0001.05
